TimeEST,TemperatureF,Dew PointF,Humidity,Sea Level PressureIn,VisibilityMPH,Wind Direction,Wind SpeedMPH,Gust SpeedMPH,PrecipitationIn,Events,Conditions,WindDirDegrees,DateUTC
12:15 AM,65.3,53.6,66,29.87,10.0,SSW,8.1,25.3,N/A,,Mostly Cloudy,210,2014-02-21 05:15:00
12:35 AM,65.3,53.8,66,29.87,10.0,SSW,13.8,23.0,N/A,,Overcast,210,2014-02-21 05:35:00
12:55 AM,65.3,54.5,68,29.87,10.0,SSW,12.7,23.0,N/A,,Overcast,210,2014-02-21 05:55:00
1:15 AM,64.8,54.5,69,29.86,10.0,SW,11.5,19.6,N/A,,Overcast,230,2014-02-21 06:15:00
1:35 AM,64.8,54.5,69,29.85,10.0,SSW,8.1,24.2,N/A,,Overcast,210,2014-02-21 06:35:00
1:55 AM,64.6,54.5,70,29.86,10.0,SW,10.4,24.2,N/A,,Overcast,220,2014-02-21 06:55:00
2:15 AM,64.4,54.7,71,29.84,10.0,SW,9.2,-,N/A,Rain,Light Rain,220,2014-02-21 07:15:00
2:35 AM,64.4,54.5,70,29.83,10.0,SSW,4.6,-,N/A,,Overcast,200,2014-02-21 07:35:00
2:55 AM,64.6,54.5,70,29.82,10.0,South,8.1,-,N/A,,Overcast,170,2014-02-21 07:55:00
3:15 AM,64.4,54.7,71,29.81,10.0,SSW,9.2,21.9,N/A,,Overcast,200,2014-02-21 08:15:00
3:35 AM,64.6,54.5,70,29.80,10.0,SSW,5.8,19.6,N/A,,Overcast,200,2014-02-21 08:35:00
3:55 AM,64.0,54.9,72,29.78,10.0,SSW,10.4,-,N/A,Rain,Light Rain,200,2014-02-21 08:55:00
4:15 AM,61.0,56.8,86,29.78,4.0,West,23.0,28.8,0.15,Rain,Heavy Rain,280,2014-02-21 09:15:00
4:35 AM,57.6,55.8,94,29.80,5.0,SW,10.4,20.7,0.29,Rain,Heavy Rain,230,2014-02-21 09:35:00
4:55 AM,57.2,55.8,95,29.79,5.0,WSW,6.9,-,0.39,Rain,Heavy Rain,250,2014-02-21 09:55:00
5:15 AM,57.2,55.4,94,29.83,7.0,West,9.2,-,0.05,Rain,Rain,270,2014-02-21 10:15:00
5:35 AM,55.0,51.8,89,29.84,10.0,SSW,11.5,16.1,0.09,Rain,Rain,210,2014-02-21 10:35:00
5:55 AM,53.1,50.5,91,29.83,7.0,South,4.6,-,0.12,Rain,Rain,190,2014-02-21 10:55:00
6:15 AM,52.0,48.9,89,29.87,10.0,SW,11.5,19.6,0.01,Rain,Light Rain,220,2014-02-21 11:15:00
6:35 AM,50.4,48.0,92,29.89,10.0,SW,11.5,-,0.01,,Overcast,220,2014-02-21 11:35:00
6:55 AM,49.3,46.6,90,29.92,10.0,WSW,6.9,-,0.01,,Overcast,250,2014-02-21 11:55:00
7:15 AM,49.1,42.4,78,29.94,10.0,West,9.2,-,N/A,,Overcast,280,2014-02-21 12:15:00
7:35 AM,47.8,41.0,77,29.96,10.0,WNW,9.2,-,N/A,,Overcast,300,2014-02-21 12:35:00
7:55 AM,47.3,41.2,79,29.96,10.0,West,3.5,-,N/A,,Drizzle,280,2014-02-21 12:55:00
8:15 AM,46.8,42.6,85,29.98,10.0,WSW,5.8,-,N/A,,Overcast,240,2014-02-21 13:15:00
8:35 AM,46.2,40.8,81,29.99,10.0,SSW,3.5,-,N/A,,Overcast,210,2014-02-21 13:35:00
8:55 AM,46.4,40.1,79,30.00,10.0,NNE,3.5,-,N/A,,Overcast,30,2014-02-21 13:55:00
9:15 AM,45.5,32.7,61,30.01,10.0,North,4.6,-,N/A,,Mostly Cloudy,10,2014-02-21 14:15:00
9:35 AM,44.8,35.8,71,30.03,10.0,East,4.6,-,N/A,,Scattered Clouds,90,2014-02-21 14:35:00
9:55 AM,45.3,32.7,61,30.01,10.0,ENE,4.6,-,N/A,,Clear,60,2014-02-21 14:55:00
10:15 AM,45.9,28.8,51,30.01,10.0,NE,3.5,-,N/A,,Clear,50,2014-02-21 15:15:00
10:35 AM,46.8,28.2,49,30.01,10.0,NE,3.5,-,N/A,,Clear,40,2014-02-21 15:35:00
10:55 AM,48.7,29.8,48,30.00,10.0,SE,4.6,-,N/A,,Clear,140,2014-02-21 15:55:00
11:15 AM,49.5,29.5,46,30.00,10.0,SSW,3.5,-,N/A,,Clear,200,2014-02-21 16:15:00
11:35 AM,49.3,27.1,42,30.00,10.0,SSE,3.5,-,N/A,,Clear,160,2014-02-21 16:35:00
11:55 AM,50.2,26.1,39,30.00,10.0,Calm,Calm,-,N/A,,Clear,0,2014-02-21 16:55:00
12:15 PM,52.2,24.3,34,29.99,10.0,Calm,Calm,-,N/A,,Clear,0,2014-02-21 17:15:00
12:35 PM,52.5,22.8,31,29.97,10.0,SW,3.5,-,N/A,,Clear,230,2014-02-21 17:35:00
12:55 PM,54.0,26.1,34,29.97,10.0,SW,9.2,-,N/A,,Clear,230,2014-02-21 17:55:00
1:15 PM,54.5,25.7,33,29.97,10.0,SW,10.4,-,N/A,,Clear,230,2014-02-21 18:15:00
1:35 PM,55.6,26.2,32,29.96,10.0,WSW,11.5,17.3,N/A,,Clear,240,2014-02-21 18:35:00
1:55 PM,55.2,27.3,34,29.96,10.0,WSW,10.4,17.3,N/A,,Clear,240,2014-02-21 18:55:00
2:15 PM,55.4,25.7,32,29.96,10.0,WSW,16.1,20.7,N/A,,Clear,240,2014-02-21 19:15:00
2:35 PM,55.4,22.1,27,29.97,10.0,West,17.3,27.6,N/A,,Clear,260,2014-02-21 19:35:00
2:55 PM,54.9,20.1,26,29.98,10.0,West,15.0,23.0,N/A,,Clear,270,2014-02-21 19:55:00
3:15 PM,54.5,20.3,26,29.99,10.0,WNW,11.5,-,N/A,,Clear,290,2014-02-21 20:15:00
3:35 PM,54.9,22.6,29,29.99,10.0,NW,10.4,-,N/A,,Clear,320,2014-02-21 20:35:00
3:55 PM,54.5,22.8,29,29.99,10.0,WSW,8.1,-,N/A,,Clear,240,2014-02-21 20:55:00
4:15 PM,54.3,25.5,33,30.00,10.0,WSW,10.4,-,N/A,,Clear,250,2014-02-21 21:15:00
4:35 PM,53.8,25.0,33,30.00,10.0,SW,13.8,-,N/A,,Clear,230,2014-02-21 21:35:00
4:55 PM,53.4,25.9,34,30.01,10.0,West,9.2,-,N/A,,Clear,260,2014-02-21 21:55:00
5:15 PM,52.7,23.7,32,30.02,10.0,WSW,13.8,18.4,N/A,,Clear,240,2014-02-21 22:15:00
5:35 PM,51.8,22.8,32,30.03,10.0,WSW,10.4,-,N/A,,Clear,240,2014-02-21 22:35:00
5:55 PM,50.9,21.2,31,30.04,10.0,WSW,8.1,-,N/A,,Clear,240,2014-02-21 22:55:00
6:15 PM,49.1,21.9,34,30.04,10.0,WSW,4.6,-,N/A,,Clear,240,2014-02-21 23:15:00
6:35 PM,43.9,27.9,53,30.05,10.0,Calm,Calm,-,N/A,,Clear,0,2014-02-21 23:35:00
6:55 PM,42.4,27.0,54,30.06,10.0,Calm,Calm,-,N/A,,Clear,0,2014-02-21 23:55:00
7:15 PM,42.6,25.5,51,30.07,10.0,Calm,Calm,-,N/A,,Clear,0,2014-02-22 00:15:00
7:35 PM,39.0,27.7,64,30.07,10.0,NNE,3.5,-,N/A,,Clear,30,2014-02-22 00:35:00
7:55 PM,38.1,27.9,67,30.08,10.0,Calm,Calm,-,N/A,,Clear,0,2014-02-22 00:55:00
8:15 PM,36.9,27.9,70,30.08,10.0,Calm,Calm,-,N/A,,Clear,0,2014-02-22 01:15:00
8:35 PM,35.2,28.4,76,30.08,10.0,Calm,Calm,-,N/A,,Clear,0,2014-02-22 01:35:00
8:55 PM,34.2,28.4,79,30.08,10.0,Calm,Calm,-,N/A,,Clear,0,2014-02-22 01:55:00
9:15 PM,34.3,27.1,75,30.08,10.0,Calm,Calm,-,N/A,,Clear,0,2014-02-22 02:15:00
9:35 PM,34.5,27.0,74,30.09,10.0,Calm,Calm,-,N/A,,Clear,0,2014-02-22 02:35:00
9:55 PM,32.7,27.5,81,30.09,10.0,Calm,Calm,-,N/A,,Clear,0,2014-02-22 02:55:00
10:15 PM,32.4,26.6,79,30.10,10.0,Calm,Calm,-,N/A,,Clear,0,2014-02-22 03:15:00
10:35 PM,31.5,27.3,85,30.10,10.0,Calm,Calm,-,N/A,,Clear,0,2014-02-22 03:35:00
10:55 PM,31.8,27.9,85,30.10,10.0,Calm,Calm,-,N/A,,Clear,0,2014-02-22 03:55:00
11:15 PM,32.0,27.9,85,30.11,10.0,Calm,Calm,-,N/A,,Clear,0,2014-02-22 04:15:00
11:35 PM,32.0,27.7,84,30.11,10.0,Calm,Calm,-,N/A,,Clear,0,2014-02-22 04:35:00
11:55 PM,32.0,27.9,85,30.11,10.0,Calm,Calm,-,N/A,,Clear,0,2014-02-22 04:55:00